• MPC Preparation (Info)

  • MPEC 2013-X57 : 2012 LG11

    The following Minor Planet Electronic Circular may be linked-to from your own Web pages, but must not otherwise be redistributed electronically.

    A form allowing access to any MPEC is at the bottom of this page.


    Read MPEC 2013-X56 Read MPEC 2013-X58


    M.P.E.C. 2013-X57                                Issued 2013 Dec. 12, 13:43 UT
    
         The Minor Planet Electronic Circulars contain information on unusual
             minor planets and routine data on comets.  They are published
       on behalf of Commission 20 of the International Astronomical Union by the
              Minor Planet Center, Smithsonian Astrophysical Observatory,
                              Cambridge, MA 02138, U.S.A.
    
                 Prepared using the Tamkin Foundation Computer Network
    
                                  MPC@CFA.HARVARD.EDU
                URL https://www.minorplanetcenter.net/    ISSN 1523-6714
    
                                       2012 LG11
    
                               Revision to MPEC 2012-M08
    
    Additional Observations:
         K12L11G 2C2013 12 03.47287504 34 57.308+22 32 56.41         23.0 RtEX057568
         K12L11G 2C2013 12 03.47672104 34 56.976+22 32 53.61         22.6 RtEX057568
         K12L11G 2C2013 12 03.48054304 34 56.641+22 32 50.81         23.1 RtEX057568
         K12L11G 2C2013 12 10.56063804 25 11.563+21 06 22.80         23.4 RtEX057568
         K12L11G 2C2013 12 10.56789204 25 10.977+21 06 17.51         23.4 RtEX057568
    
    Observer details:
    568 Mauna Kea.  Observers D. J. Tholen, D. Farnocchia, M. C. Kotson.  Measurer
        D. J. Tholen.  2.24-m University of Hawaii reflector.
    
    First and last observations above in comparison with prediction:
    Residuals in seconds of arc, reference and Delta-T
    131203 568  7.8+  4.5-    131210 568  7.8+  4.5-    MPO242006   -0.016 day
    
    Orbital elements:
    2012 LG11                                                Earth MOID = 0.2020 AU
    Epoch 2013 Nov. 4.0 TT = JDT 2456600.5                  MPC
    M 184.75826              (2000.0)            P               Q
    n   0.34531754     Peri.  352.35988     -0.42007008     +0.70651497
    a   2.0121343      Node   251.19130     -0.79754725     -0.58684726
    e   0.3961152      Incl.   36.98965     -0.43296595     +0.39553368
    P   2.85           H   19.3           G   0.15           U   1
    Residuals in seconds of arc
    120614 461  1.0+  0.4-    120619 850 (2.1+  0.3+)   120627 H45  0.4-  0.5-
    120614 461  0.4-  0.6-    120619 H21  0.0   0.2-    120627 H45  0.1-  0.2-
    120614 461  0.2-  0.4+    120619 H21  0.1+  0.2-    120627 718  0.0   0.2-
    120614 461  0.0   1.1+    120619 H21  0.1-  0.3-    120627 718  0.7-  0.1-
    120616 461  0.1-  0.2+    120619 H21  0.0   0.3-    120627 718  0.5-  0.3+
    120616 461  0.1+  0.1-    120620 461  0.1-  0.4+    120628 H21  0.3-  0.3-
    120616 461  0.1+  0.0     120620 461  0.1+  0.0     120628 H21  0.1-  0.0
    120616 461  0.2-  0.1+    120620 461  0.1-  0.2+    120628 H21  0.2-  0.0
    120616 461  0.1-  0.0     120620 461  0.6+  0.1+    120628 H45  0.5-  0.4+
    120616 461  0.3+  0.1+    120620 461  0.1+  0.4-    120628 H45  0.3+  0.4-
    120616 461  0.1-  0.1+    120620 461  0.1-  0.2+    120628 H45  0.5-  0.5+
    120616 461  0.1-  0.0     120620 461  0.1-  0.1+    120628 H45  0.3+  0.5-
    120616 461  0.0   0.1+    120621 718  0.1-  0.0     120628 H45  0.3-  0.2-
    120616 A24  0.2+  0.3+    120621 718  0.5+  0.4+    120628 H45  0.1-  0.4-
    120616 A24  0.2+  0.4+    120621 718  0.3+  0.0     120629 H21  0.1+  0.1+
    120616 A24  0.2+  0.4+    120621 I76  0.7-  0.5+    120629 H21  0.1+  0.0
    120616 A24  0.2+  0.4+    120622 I15  0.2-  0.5+    120629 H21  0.1+  0.2+
    120616 B49  0.0   0.5-    120622 I15  0.4-  0.5-    120629 H21  0.3+  0.1-
    120616 B18  0.1+  0.4-    120622 I15  0.5-  0.5-    120629 H21  0.2+  0.1+
    120616 B49  0.1+  0.4-    120622 A17  0.1-  0.1-    120629 H21  0.1+  0.2+
    120616 B18  0.2+  0.0     120622 I76  0.2-  0.8+    120629 H45  0.3+  1.2+
    120616 B49  0.0   0.2-    120622 A17  0.2+  0.1-    120629 H45  0.1+  0.1+
    120616 B18  0.4+  0.2-    120622 160  0.2+  0.1+    120629 H45  0.4+  0.1-
    120616 046  0.2-  0.3-    120622 160  0.3+  0.2+    120629 H45  0.7+  0.1-
    120616 046  0.4-  0.1+    120622 160  0.2+  0.1-    120629 H45  0.1-  0.0
    120616 046  0.3+  0.7+    120622 A17  0.2+  0.3-    120629 H45  0.1+  0.2+
    120616 046  0.4+  0.3+    120623 H21  0.1-  0.1-    120630 H21  0.3+  0.0
    120616 046  0.2-  0.6+    120623 H21  0.1-  0.0     120630 H21  0.3+  0.1+
    120616 046  0.0   0.3-    120623 H21  0.1-  0.1+    120630 H21  0.0   0.3+
    120617 461  0.1+  0.1+    120623 850  1.2+  0.8+    120630 H21  0.3+  0.4+
    120617 461  0.1+  0.1+    120623 718  0.3+  0.2+    120702 H21  0.3-  0.4+
    120617 461  0.1-  0.0     120623 718  0.2-  0.4-    120702 H21  0.0   0.7+
    120617 461  0.0   0.1+    120623 850 (1.0+  1.7+)   120702 H21  0.1+  0.6+
    120617 461  0.1-  0.1+    120623 718  0.3-  0.4-    120704 H21  0.5+  0.1+
    120617 J95  0.2+  0.1+    120623 850 (3.4+  0.2+)   120704 H21  0.4+  0.2-
    120617 J95  0.0   0.6-    120623 157  0.5-  0.1+    120704 H21  0.2+  0.0
    120617 954 (1.0-  3.5+)   120623 157  0.5-  0.4+    120705 H21  0.0   0.0
    120617 954 (1.0-  2.6+)   120623 157  0.0   0.5+    120705 H21  0.1+  0.2+
    120617 954 (1.4-  3.8+)   120624 I42  1.0+  0.1+    120705 H21  0.1-  0.2+
    120617 954 (1.3-  3.3+)   120624 I42  0.6+  0.3+    120705 I93  0.4+  0.1+
    120617 954 (0.9-  3.4+)   120624 H45  0.3-  0.2-    120705 I93  0.0   0.0
    120617 H36  1.4-  0.3+    120624 H45  0.2-  0.0     120706 I93  0.3-  0.2+
    120617 850  1.1-  0.6-    120624 H45  0.2+  0.4-    120707 H21  0.6+  0.5-
    120617 H36  0.2-  0.3-    120624 H45  0.0   0.4+    120707 H21  0.1+  0.3-
    120617 H36  0.0   0.1-    120624 H45  0.1+  0.2-    120707 H21  0.2+  0.0
    120617 850  0.1+  0.3-    120624 H45  0.2+  0.2-    120710 H21  0.2-  0.3-
    120617 850  0.2+  0.3+    120624 H45  0.1+  0.5+    120710 H21  0.1-  0.3-
    120617 850  0.0   0.1+    120624 718  0.2-  0.2+    120710 H21  0.1-  0.5-
    120617 C43  0.3-  0.0     120624 718  0.3+  0.1-    120711 204  0.0   0.1-
    120617 C43  0.0   0.0     120624 718  0.5+  0.1+    120711 204  0.1+  0.2-
    120617 C43  0.1-  0.2+    120625 H45  0.5-  0.4-    120712 H21  0.2+  0.2-
    120618 461  0.0   0.3+    120625 H45  0.0   0.1+    120712 H21  0.2-  0.1+
    120618 461  0.0   0.1+    120625 H45  0.3-  0.3+    120712 H21  0.2-  0.0
    120618 461  0.1-  0.1+    120625 H45  0.0   0.2-    120714 H21  0.4+  0.2-
    120618 461  0.1+  0.3+    120625 H45  0.1-  0.5-    120714 H21  0.2+  0.2-
    120618 461  0.3+  0.2+    120625 H45  0.5+  0.0     120714 H21  0.0   0.1+
    120618 850  0.4-  0.1-    120625 H45  0.1+  0.2-    120716 H21  0.5+  0.2+
    120618 850  0.6+  0.0     120626 H21  0.2-  0.1+    120716 H21  0.5+  0.1-
    120618 H21  0.1-  0.2-    120626 H21  0.1-  0.2-    120716 H21  0.3+  0.1+
    120618 H21  0.0   0.1-    120626 H21  0.0   0.4-    120718 H21  0.0   0.2-
    120618 H21  0.1-  0.1-    120626 H21  0.3-  0.1-    120718 H21  0.1-  0.1-
    120618 850  0.8+  0.1-    120626 718  0.3-  0.7+    120718 H21  0.3-  0.1-
    120619 204  0.1-  0.2-    120626 718  0.4-  0.2-    120719 J04  0.1-  0.1+
    120619 204  0.0   0.3-    120626 H45  0.4+  0.2+    120720 J04  0.0   0.0
    120619 204  0.2+  0.2-    120626 H45  0.1+  0.2+    120720 J04  0.2+  0.1+
    120619 461  0.3+  0.0     120626 H45  0.0   0.3+    120728 H21  0.3-  0.1-
    120619 461  0.0   0.3+    120626 H45  0.1-  0.3+    120728 H21  0.1-  0.1+
    120619 461  0.1-  0.1+    120626 H45  0.4-  0.1-    120728 H21  0.4-  0.2-
    120619 461  0.1-  0.1+    120626 H45  0.2+  0.4+    120807 H21  0.0   0.2+
    120619 461  0.1-  0.0     120626 H45  0.3+  0.4+    120807 H21  0.3+  0.3+
    120619 461  0.1+  0.2+    120626 718  0.7-  0.3-    120807 H21  0.2-  0.1-
    120619 461  0.1+  0.1+    120627 H21  0.1-  0.1-    120905 H21  0.0   0.1-
    120619 850  0.1-  0.2-    120627 H21  0.1-  0.2-    120905 H21  0.1-  0.4-
    120619 H45  0.6-  0.4-    120627 H21  0.1-  0.2-    120905 H21  0.2-  0.1+
    120619 H45  0.3-  0.0     120627 H21  0.2-  0.2-    120906 H21  0.2-  0.1-
    120619 H45  0.0   0.0     120627 H21  0.2-  0.0     120906 H21  0.0   0.3+
    120619 H45  0.1-  0.0     120627 H45  0.4-  0.3+    120906 H21  0.1+  0.1+
    120619 H45  0.1-  0.3-    120627 H45  0.6-  0.6-    131203 568  0.0   0.0
    120619 H45  0.1-  0.1-    120627 718  0.4-  0.7-    131203 568  0.0   0.0
    120619 H45  0.3-  0.1-    120627 H45  0.1-  0.6-    131203 568  0.1-  0.0
    120619 850  1.0+  0.3+    120627 H45  0.4-  0.3-    131210 568  0.0   0.0
    120619 850 (4.0-  8.1-)   120627 H45  0.0   0.0     131210 568  0.1+  0.1+
    
    Ephemeris:
    2012 LG11                a,e,i = 2.01, 0.40, 37                  q = 1.2151
    Date    TT    R. A. (2000) Decl.     Delta      r     Elong.  Phase     V
    2013 11 12    05 03 44.2 +26 28 44   1.8932  2.8057   151.9     9.6    23.6
    ...
    2013 11 27    04 44 04.3 +23 49 44   1.8188  2.7991   171.9     2.9    23.1
    ...
    2013 12 05    04 32 49.1 +22 14 25   1.8096  2.7943   177.1     1.0    23.0
    ...
    2013 12 11    04 24 36.7 +21 01 01   1.8173  2.7900   168.9     3.9    23.2
    2013 12 12    04 23 17.3 +20 48 47   1.8198  2.7893   167.5     4.4    23.2
    2013 12 13    04 21 58.8 +20 36 35   1.8226  2.7885   166.2     4.8    23.2
    ...
    2013 12 19    04 14 31.4 +19 24 20   1.8463  2.7835   158.1     7.6    23.4
    ...
    2013 12 27    04 05 53.0 +17 53 03   1.8951  2.7760   147.6    10.9    23.6
    ...
    2014 01 11    03 54 42.5 +15 27 45   2.0308  2.7595   129.2    16.0    23.9
    
    A. U. Tomatic                (C) Copyright 2013 MPC           M.P.E.C. 2013-X57
    

    Read MPEC 2013-X56 Read MPEC 2013-X58


    MPEC number:

    Enter an MPEC number in one of the following forms:

    • 1997-B01 (the full form)
    • J97B01 (the packed version of the full form)
    • B01 (the abbreviated form)